TAM2742 SPJC-SAEZ

Flight info

Callsign TAM2742
Flight time N/A
Altitude 39000
Route SCO UL550 ROS UT672 MULTA UW24 SNT SNT7X
Aircraft B772/H-SDE2E3FGHIJ5LORVWXY/LB1D1

Departure

Time 2026-05-04 14:30
Airport Jorge Chávez International Airport (SPJC)

Arrival

Time N/A
Airport Ezeiza International Airport - Ministro Pistarini (SAEZ)
Time Latitude Longitude Altitude Speed Heading
2026-05-04 14:19 -12.02236 -77.11014 126 ft 0 kts 64°
2026-05-04 14:24 -12.02239 -77.11022 127 ft 2 kts 64°
2026-05-04 14:24 -12.02248 -77.11038 127 ft 3 kts 55°
2026-05-04 14:24 -12.02261 -77.11053 127 ft 3 kts 38°
2026-05-04 14:25 -12.02278 -77.11063 127 ft 3 kts 20°
2026-05-04 14:25 -12.02318 -77.11067 127 ft 3 kts 347°
2026-05-04 14:25 -12.02336 -77.11061 127 ft 0 kts 335°
2026-05-04 14:26 -12.02324 -77.11075 127 ft 3 kts 296°
2026-05-04 14:26 -12.02347 -77.11118 127 ft 11 kts 206°
2026-05-04 14:27 -12.02438 -77.11107 127 ft 16 kts 155°
2026-05-04 14:27 -12.02567 -77.11045 127 ft 25 kts 155°
2026-05-04 14:27 -12.02742 -77.10961 127 ft 31 kts 155°
2026-05-04 14:27 -12.02950 -77.10860 127 ft 34 kts 153°
2026-05-04 14:28 -12.03148 -77.10758 127 ft 30 kts 153°
2026-05-04 14:28 -12.03319 -77.10673 127 ft 25 kts 154°
2026-05-04 14:28 -12.03463 -77.10603 127 ft 20 kts 154°
2026-05-04 14:28 -12.03544 -77.10573 127 ft 6 kts 193°
2026-05-04 14:29 -12.03607 -77.10688 127 ft 11 kts 262°
2026-05-04 14:29 -12.03519 -77.10773 127 ft 18 kts 334°
2026-05-04 14:30 -12.03200 -77.10931 127 ft 91 kts 334°
2026-05-04 14:30 -12.02391 -77.11330 129 ft 164 kts 334°
2026-05-04 14:30 -11.99999 -77.12664 1243 ft 212 kts 320°
2026-05-04 14:31 -11.99101 -77.13967 1705 ft 247 kts 295°
2026-05-04 14:31 -11.99098 -77.17743 3060 ft 275 kts 253°
2026-05-04 14:32 -12.00692 -77.21122 4003 ft 272 kts 245°
2026-05-04 14:32 -12.01220 -77.22322 3844 ft 288 kts 246°
2026-05-04 14:32 -12.02044 -77.24232 3544 ft 296 kts 245°
2026-05-04 14:32 -12.02887 -77.26110 3243 ft 293 kts 245°
2026-05-04 14:33 -12.03898 -77.27893 3022 ft 284 kts 234°
2026-05-04 14:33 -12.05364 -77.29165 2982 ft 271 kts 209°
2026-05-04 14:33 -12.07143 -77.29621 2997 ft 262 kts 184°
2026-05-04 14:33 -12.08916 -77.29453 3154 ft 257 kts 170°
2026-05-04 14:34 -12.10701 -77.29119 3810 ft 265 kts 169°
2026-05-04 14:34 -12.12521 -77.28735 5002 ft 267 kts 168°
2026-05-04 14:34 -12.14334 -77.28322 6211 ft 267 kts 168°
2026-05-04 14:34 -12.16136 -77.27908 7275 ft 271 kts 168°
2026-05-04 14:35 -12.18014 -77.27561 8249 ft 278 kts 173°
2026-05-04 14:35 -12.19978 -77.27335 9160 ft 287 kts 173°
2026-05-04 14:35 -12.21969 -77.27052 10141 ft 293 kts 172°
2026-05-04 14:35 -12.23998 -77.26690 11096 ft 300 kts 169°
2026-05-04 14:36 -12.26104 -77.26244 11880 ft 316 kts 167°
2026-05-04 14:36 -12.28306 -77.25716 12704 ft 332 kts 166°
2026-05-04 14:36 -12.30608 -77.25119 13409 ft 351 kts 165°
2026-05-04 14:36 -12.33036 -77.24460 13973 ft 372 kts 164°
2026-05-04 14:37 -12.35564 -77.23758 14665 ft 386 kts 163°
2026-05-04 14:37 -12.38197 -77.23020 15441 ft 397 kts 163°
2026-05-04 14:37 -12.40889 -77.22261 16267 ft 405 kts 163°
2026-05-04 14:37 -12.43634 -77.21485 17085 ft 412 kts 163°
2026-05-04 14:38 -12.46417 -77.20696 17887 ft 418 kts 163°
2026-05-04 14:38 -12.49225 -77.19897 18672 ft 424 kts 163°
2026-05-04 14:38 -12.52090 -77.19082 19412 ft 429 kts 163°
2026-05-04 14:38 -12.54979 -77.18259 20120 ft 435 kts 164°
2026-05-04 14:39 -12.57934 -77.17417 20825 ft 439 kts 164°
2026-05-04 14:39 -12.60857 -77.16583 21513 ft 444 kts 163°
2026-05-04 14:39 -12.63857 -77.15727 22122 ft 449 kts 163°
2026-05-04 14:40 -12.69948 -77.13988 23291 ft 458 kts 163°
2026-05-04 14:40 -12.72998 -77.13118 23894 ft 461 kts 162°
2026-05-04 14:40 -12.76107 -77.12221 24606 ft 460 kts 161°
2026-05-04 14:40 -12.79129 -77.11096 25157 ft 463 kts 155°
2026-05-04 14:41 -12.81999 -77.09610 25476 ft 469 kts 149°
2026-05-04 14:41 -12.84706 -77.07747 26158 ft 467 kts 143°
2026-05-04 14:41 -12.89941 -77.03642 27063 ft 477 kts 144°
2026-05-04 14:42 -12.95221 -76.99309 27564 ft 496 kts 141°
2026-05-04 14:42 -12.97943 -76.97060 27813 ft 505 kts 141°
2026-05-04 14:42 -13.00701 -76.94781 28126 ft 511 kts 141°
2026-05-04 14:43 -13.03478 -76.92486 28479 ft 515 kts 140°
2026-05-04 14:43 -13.06290 -76.90161 28852 ft 519 kts 140°
2026-05-04 14:43 -13.09078 -76.87856 29232 ft 522 kts 140°
2026-05-04 14:43 -13.11909 -76.85516 29586 ft 524 kts 140°
2026-05-04 14:44 -13.14766 -76.83153 29923 ft 527 kts 140°
2026-05-04 14:44 -13.17640 -76.80775 30244 ft 530 kts 140°
2026-05-04 14:44 -13.20522 -76.78390 30508 ft 533 kts 140°
2026-05-04 14:44 -13.23389 -76.76016 30821 ft 535 kts 140°
2026-05-04 14:45 -13.26283 -76.73619 31260 ft 533 kts 140°
2026-05-04 14:45 -13.29171 -76.71227 31700 ft 532 kts 140°
2026-05-04 14:45 -13.32049 -76.68843 32121 ft 531 kts 140°
2026-05-04 14:45 -13.34913 -76.66469 32702 ft 524 kts 139°
2026-05-04 14:46 -13.37732 -76.64132 33416 ft 518 kts 141°
2026-05-04 14:46 -13.40505 -76.61831 33780 ft 520 kts 140°
2026-05-04 14:46 -13.43311 -76.59503 34208 ft 517 kts 139°
2026-05-04 14:46 -13.46109 -76.57181 34728 ft 511 kts 139°
2026-05-04 14:47 -13.48861 -76.54896 35365 ft 505 kts 139°
2026-05-04 14:47 -13.51585 -76.52635 35880 ft 501 kts 139°
2026-05-04 14:47 -13.54300 -76.50379 36207 ft 503 kts 139°
2026-05-04 14:47 -13.57039 -76.48103 36271 ft 510 kts 139°
2026-05-04 14:48 -13.62607 -76.43474 36520 ft 520 kts 141°
2026-05-04 14:48 -13.65427 -76.41129 36885 ft 520 kts 141°
2026-05-04 14:48 -13.68236 -76.38792 37302 ft 518 kts 141°
2026-05-04 14:49 -13.71033 -76.36464 37703 ft 516 kts 141°
2026-05-04 14:49 -13.73815 -76.34149 38113 ft 514 kts 140°
2026-05-04 14:49 -13.76606 -76.31824 38519 ft 513 kts 140°
2026-05-04 14:49 -13.79343 -76.29544 38912 ft 511 kts 140°
2026-05-04 14:50 -13.82105 -76.27243 39310 ft 509 kts 140°
2026-05-04 14:50 -13.84851 -76.24954 39687 ft 507 kts 140°
2026-05-04 14:50 -13.87590 -76.22670 40042 ft 506 kts 140°
2026-05-04 14:50 -13.90324 -76.20390 40374 ft 505 kts 140°
2026-05-04 14:51 -13.93047 -76.18118 40693 ft 504 kts 140°
2026-05-04 14:51 -13.95773 -76.15843 40968 ft 503 kts 141°
2026-05-04 14:51 -14.01171 -76.11335 40999 ft 502 kts 140°
2026-05-04 14:52 -14.06603 -76.06797 41001 ft 501 kts 140°
2026-05-04 14:52 -14.12014 -76.02274 41010 ft 501 kts 140°
2026-05-04 14:53 -14.17429 -75.97744 41010 ft 501 kts 140°
2026-05-04 14:53 -14.22810 -75.93239 41010 ft 501 kts 140°
2026-05-04 14:54 -14.28235 -75.88695 41028 ft 500 kts 140°
2026-05-04 14:54 -14.33623 -75.84180 41028 ft 500 kts 140°
2026-05-04 14:55 -14.39069 -75.79701 41026 ft 501 kts 141°
2026-05-04 14:55 -14.44534 -75.75235 41028 ft 501 kts 141°
2026-05-04 14:56 -14.49999 -75.70761 41029 ft 500 kts 141°
2026-05-04 14:56 -14.55425 -75.66315 41028 ft 500 kts 141°
2026-05-04 14:57 -14.60884 -75.61837 41022 ft 500 kts 142°
2026-05-04 14:57 -14.66300 -75.57391 41022 ft 499 kts 141°
2026-05-04 14:58 -14.71759 -75.52907 41024 ft 500 kts 141°
2026-05-04 14:58 -14.77200 -75.48436 41024 ft 500 kts 142°
2026-05-04 14:59 -14.82617 -75.43980 41008 ft 499 kts 142°
2026-05-04 15:00 -14.90751 -75.37286 41008 ft 498 kts 142°
2026-05-04 15:00 -14.96180 -75.32812 41005 ft 498 kts 142°
2026-05-04 15:01 -15.04285 -75.26131 41003 ft 498 kts 142°
2026-05-04 15:01 -15.09715 -75.21650 41000 ft 498 kts 142°
2026-05-04 15:02 -15.15105 -75.17199 40996 ft 497 kts 142°
2026-05-04 15:02 -15.20518 -75.12726 40995 ft 496 kts 142°
2026-05-04 15:03 -15.25889 -75.08286 40996 ft 497 kts 142°
2026-05-04 15:03 -15.31303 -75.03806 40995 ft 498 kts 142°
2026-05-04 15:04 -15.36726 -74.99316 40997 ft 495 kts 142°
2026-05-04 15:04 -15.42049 -74.94905 40994 ft 492 kts 142°
2026-05-04 15:05 -15.47405 -74.90465 40995 ft 493 kts 142°
2026-05-04 15:05 -15.52771 -74.86013 40998 ft 492 kts 142°
2026-05-04 15:06 -15.58117 -74.81575 40995 ft 492 kts 142°
2026-05-04 15:07 -15.66113 -74.74931 41017 ft 493 kts 142°
2026-05-04 15:07 -15.71454 -74.70489 41025 ft 490 kts 142°
2026-05-04 15:08 -15.76766 -74.66068 41020 ft 488 kts 142°
2026-05-04 15:08 -15.82062 -74.61657 41017 ft 490 kts 142°
2026-05-04 15:09 -15.87376 -74.57228 41029 ft 490 kts 142°
2026-05-04 15:09 -15.92705 -74.52784 41025 ft 490 kts 142°
2026-05-04 15:10 -16.00681 -74.46127 41042 ft 490 kts 142°
2026-05-04 15:11 -16.08608 -74.39503 41049 ft 489 kts 142°
2026-05-04 15:11 -16.13931 -74.35051 41046 ft 490 kts 142°
2026-05-04 15:12 -16.19249 -74.30601 41022 ft 490 kts 142°
2026-05-04 15:12 -16.24528 -74.26180 40995 ft 488 kts 142°
2026-05-04 15:13 -16.29834 -74.21733 40994 ft 489 kts 142°
2026-05-04 15:13 -16.35103 -74.17313 40995 ft 489 kts 142°
2026-05-04 15:14 -16.40419 -74.12851 40994 ft 489 kts 142°
2026-05-04 15:14 -16.45728 -74.08392 40994 ft 490 kts 142°
2026-05-04 15:15 -16.51005 -74.03957 40994 ft 489 kts 142°
2026-05-04 15:15 -16.56319 -73.99487 40994 ft 491 kts 142°
2026-05-04 15:16 -16.64295 -73.92772 40994 ft 492 kts 142°
2026-05-04 15:17 -16.72287 -73.86036 40994 ft 491 kts 142°
2026-05-04 15:17 -16.80251 -73.79316 40995 ft 495 kts 142°
2026-05-04 15:18 -16.85617 -73.74785 40994 ft 496 kts 142°
2026-05-04 15:19 -16.93679 -73.67970 40994 ft 498 kts 142°
2026-05-04 15:19 -17.01746 -73.61142 40994 ft 498 kts 142°
2026-05-04 15:20 -17.06226 -73.57348 40993 ft 498 kts 141°
2026-05-04 15:20 -17.11633 -73.52765 40994 ft 501 kts 141°
2026-05-04 15:21 -17.17067 -73.48155 40994 ft 502 kts 141°
2026-05-04 15:22 -17.25172 -73.41272 40994 ft 501 kts 141°
2026-05-04 15:22 -17.33317 -73.34349 40994 ft 503 kts 140°
2026-05-04 15:23 -17.38757 -73.29719 40994 ft 502 kts 140°
2026-05-04 15:23 -17.44148 -73.25128 40994 ft 501 kts 140°
2026-05-04 15:24 -17.54964 -73.15905 40994 ft 502 kts 140°
2026-05-04 15:25 -17.60388 -73.11275 40994 ft 502 kts 140°
2026-05-04 15:26 -17.68507 -73.04337 40994 ft 501 kts 140°
2026-05-04 15:26 -17.76588 -72.97424 40994 ft 502 kts 140°
2026-05-04 15:27 -17.84704 -72.90471 40994 ft 502 kts 140°
2026-05-04 15:28 -17.92814 -72.83517 40994 ft 502 kts 140°
2026-05-04 15:29 -18.00935 -72.76543 40994 ft 502 kts 140°
2026-05-04 15:30 -18.19826 -72.60314 40994 ft 502 kts 140°
2026-05-04 15:31 -18.27929 -72.53324 40994 ft 502 kts 140°
2026-05-04 15:32 -18.41471 -72.41789 40994 ft 498 kts 141°
2026-05-04 15:34 -18.54920 -72.30516 40994 ft 495 kts 141°
2026-05-04 15:34 -18.63015 -72.23712 40994 ft 495 kts 141°
2026-05-04 15:35 -18.71096 -72.16938 40994 ft 496 kts 141°
2026-05-04 15:36 -18.79200 -72.10121 40994 ft 496 kts 141°
2026-05-04 15:36 -18.84576 -72.05591 40994 ft 497 kts 141°
2026-05-04 15:37 -18.89989 -72.01025 40994 ft 497 kts 141°
2026-05-04 15:37 -18.95395 -71.96461 40994 ft 497 kts 141°
2026-05-04 15:38 -19.00794 -71.91900 40994 ft 497 kts 141°
2026-05-04 15:38 -19.06172 -71.87352 40994 ft 498 kts 141°
2026-05-04 15:39 -19.11590 -71.82766 40994 ft 498 kts 141°
2026-05-04 15:40 -19.19675 -71.75915 40994 ft 498 kts 141°
2026-05-04 15:40 -19.25088 -71.71325 40994 ft 498 kts 141°
2026-05-04 15:41 -19.30491 -71.66737 40994 ft 497 kts 141°
2026-05-04 15:41 -19.35887 -71.62152 40994 ft 496 kts 141°
2026-05-04 15:42 -19.41266 -71.57577 40994 ft 495 kts 141°
2026-05-04 15:42 -19.46603 -71.53035 40994 ft 495 kts 141°
2026-05-04 15:43 -19.51980 -71.48455 40994 ft 496 kts 141°
2026-05-04 15:43 -19.57369 -71.43859 40994 ft 497 kts 141°
2026-05-04 15:44 -19.62783 -71.39239 40994 ft 498 kts 141°
2026-05-04 15:44 -19.68178 -71.34630 40994 ft 497 kts 141°
2026-05-04 15:45 -19.73527 -71.30057 40994 ft 497 kts 141°
2026-05-04 15:45 -19.78911 -71.25450 40994 ft 497 kts 141°
2026-05-04 15:46 -19.84293 -71.20840 40994 ft 496 kts 141°
2026-05-04 15:46 -19.89670 -71.16230 40998 ft 495 kts 141°
2026-05-04 15:47 -19.94996 -71.11660 41000 ft 493 kts 141°
2026-05-04 15:47 -20.00335 -71.07075 41000 ft 494 kts 141°
2026-05-04 15:48 -20.05686 -71.02475 40999 ft 494 kts 141°
2026-05-04 15:48 -20.13695 -70.95591 40997 ft 492 kts 141°
2026-05-04 15:49 -20.18989 -70.91037 40998 ft 492 kts 141°
2026-05-04 15:49 -20.24335 -70.86422 41004 ft 495 kts 142°
2026-05-04 15:50 -20.29747 -70.81745 41020 ft 506 kts 142°
2026-05-04 15:50 -20.35241 -70.76995 41021 ft 517 kts 142°
2026-05-04 15:51 -20.40885 -70.72125 41023 ft 524 kts 142°
2026-05-04 15:51 -20.46555 -70.67211 41022 ft 524 kts 142°
2026-05-04 15:52 -20.52181 -70.62325 41022 ft 522 kts 142°
2026-05-04 15:52 -20.57823 -70.57421 41022 ft 522 kts 142°
2026-05-04 15:53 -20.63439 -70.52540 41023 ft 523 kts 142°
2026-05-04 15:53 -20.69102 -70.47618 41023 ft 524 kts 142°
2026-05-04 15:54 -20.74771 -70.42690 41024 ft 524 kts 142°
2026-05-04 15:54 -20.80397 -70.37810 41024 ft 524 kts 142°
2026-05-04 15:55 -20.86062 -70.32869 41023 ft 524 kts 142°
2026-05-04 15:55 -20.91671 -70.27969 41023 ft 524 kts 142°
2026-05-04 15:56 -20.97327 -70.23028 41023 ft 524 kts 142°
2026-05-04 15:56 -21.02979 -70.18087 41023 ft 523 kts 142°
2026-05-04 15:57 -21.08586 -70.13175 41023 ft 524 kts 142°
2026-05-04 15:57 -21.14225 -70.08226 41023 ft 523 kts 142°
2026-05-04 15:58 -21.19858 -70.03278 41023 ft 523 kts 142°
2026-05-04 15:58 -21.25491 -69.98326 41023 ft 523 kts 142°
2026-05-04 15:59 -21.31135 -69.93388 41023 ft 523 kts 142°
2026-05-04 15:59 -21.36730 -69.88474 41023 ft 523 kts 142°
2026-05-04 16:00 -21.42367 -69.83514 41023 ft 523 kts 142°
2026-05-04 16:00 -21.47991 -69.78558 41023 ft 523 kts 142°
2026-05-04 16:01 -21.53617 -69.73594 41023 ft 523 kts 142°
2026-05-04 16:01 -21.59240 -69.68627 41023 ft 523 kts 142°
2026-05-04 16:02 -21.64836 -69.63680 41023 ft 523 kts 142°
2026-05-04 16:03 -21.73266 -69.56217 41023 ft 523 kts 142°
2026-05-04 16:03 -21.78896 -69.51226 41023 ft 523 kts 142°
2026-05-04 16:04 -21.84523 -69.46232 41023 ft 523 kts 141°
2026-05-04 16:04 -21.92916 -69.38774 41023 ft 523 kts 141°
2026-05-04 16:05 -21.98530 -69.33780 41023 ft 524 kts 141°
2026-05-04 16:06 -22.06974 -69.26257 41023 ft 524 kts 141°
2026-05-04 16:07 -22.18201 -69.16235 41023 ft 524 kts 141°
2026-05-04 16:08 -22.29433 -69.06204 41023 ft 525 kts 141°
2026-05-04 16:09 -22.43459 -68.93614 41023 ft 525 kts 141°
2026-05-04 16:10 -22.53822 -68.84452 41024 ft 524 kts 144°
2026-05-04 16:11 -22.65523 -68.74978 41023 ft 524 kts 144°
2026-05-04 16:12 -22.82968 -68.60667 41024 ft 525 kts 144°
2026-05-04 16:13 -22.94562 -68.51098 41023 ft 525 kts 144°
2026-05-04 16:14 -23.06194 -68.41481 41023 ft 525 kts 144°
2026-05-04 16:16 -23.20681 -68.29460 41023 ft 525 kts 144°
2026-05-04 16:17 -23.35240 -68.17392 41023 ft 526 kts 144°
2026-05-04 16:18 -23.46841 -68.07734 41023 ft 526 kts 144°
2026-05-04 16:19 -23.61390 -67.95587 41023 ft 526 kts 144°
2026-05-04 16:20 -23.75900 -67.83436 41023 ft 526 kts 144°
2026-05-04 16:22 -23.90408 -67.71269 41023 ft 526 kts 144°
2026-05-04 16:23 -24.07785 -67.56614 41023 ft 526 kts 143°
2026-05-04 16:25 -24.25034 -67.41778 41023 ft 526 kts 143°
2026-05-04 16:26 -24.45145 -67.24342 41024 ft 526 kts 143°
2026-05-04 16:28 -24.59496 -67.11867 41024 ft 527 kts 143°
2026-05-04 16:29 -24.79578 -66.94331 41024 ft 526 kts 143°
2026-05-04 16:31 -24.93874 -66.81802 41024 ft 526 kts 143°
2026-05-04 16:32 -25.11043 -66.66703 41023 ft 527 kts 142°
2026-05-04 16:33 -25.22513 -66.56585 41023 ft 527 kts 142°
2026-05-04 16:34 -25.31068 -66.49022 41000 ft 529 kts 145°
2026-05-04 16:35 -25.39793 -66.41294 41006 ft 540 kts 145°
2026-05-04 16:35 -25.48562 -66.33512 41006 ft 539 kts 145°
2026-05-04 16:36 -25.57340 -66.25728 41007 ft 538 kts 144°
2026-05-04 16:37 -25.66080 -66.17933 41007 ft 538 kts 144°
2026-05-04 16:38 -25.77710 -66.07537 41009 ft 538 kts 144°
2026-05-04 16:39 -25.92281 -65.94513 41010 ft 536 kts 144°
2026-05-04 16:40 -26.03902 -65.84072 41014 ft 536 kts 143°
2026-05-04 16:41 -26.15214 -65.73883 40958 ft 530 kts 147°
2026-05-04 16:43 -26.29485 -65.60977 40931 ft 527 kts 148°
2026-05-04 16:43 -26.38019 -65.53236 40924 ft 527 kts 148°
2026-05-04 16:45 -26.55059 -65.37794 40921 ft 526 kts 148°
2026-05-04 16:46 -26.69174 -65.24949 40912 ft 524 kts 148°
2026-05-04 16:47 -26.80497 -65.14580 40907 ft 525 kts 148°
2026-05-04 16:48 -26.92346 -65.05424 40910 ft 513 kts 159°
2026-05-04 16:49 -27.04758 -64.97473 40908 ft 515 kts 157°
2026-05-04 16:50 -27.17135 -64.89272 40932 ft 519 kts 157°
2026-05-04 16:51 -27.26485 -64.83070 40947 ft 522 kts 156°
2026-05-04 16:52 -27.39048 -64.74702 40941 ft 522 kts 156°
2026-05-04 16:53 -27.48375 -64.68460 40966 ft 525 kts 156°
2026-05-04 16:54 -27.61066 -64.59952 40979 ft 531 kts 156°
2026-05-04 16:55 -27.78923 -64.47922 40916 ft 520 kts 157°
2026-05-04 16:56 -27.94180 -64.37646 40906 ft 512 kts 157°
2026-05-04 16:57 -28.03389 -64.31432 40907 ft 514 kts 157°
2026-05-04 16:58 -28.15637 -64.23113 40910 ft 514 kts 157°
2026-05-04 17:00 -28.34099 -64.10540 40918 ft 516 kts 156°
2026-05-04 17:01 -28.49458 -64.00036 40919 ft 517 kts 156°
2026-05-04 17:02 -28.61792 -63.91622 40921 ft 519 kts 156°
2026-05-04 17:03 -28.71076 -63.85238 40921 ft 519 kts 156°
2026-05-04 17:03 -28.80367 -63.78839 40922 ft 519 kts 156°
2026-05-04 17:04 -28.92723 -63.70261 40906 ft 522 kts 156°
2026-05-04 17:05 -29.05105 -63.61614 40906 ft 523 kts 156°
2026-05-04 17:06 -29.14429 -63.55093 40907 ft 523 kts 156°
2026-05-04 17:07 -29.22706 -63.49314 40906 ft 523 kts 156°
2026-05-04 17:07 -29.29950 -63.44228 40905 ft 524 kts 155°
2026-05-04 17:08 -29.39278 -63.37658 40905 ft 524 kts 155°
2026-05-04 17:09 -29.45440 -63.33314 40920 ft 513 kts 156°
2026-05-04 17:09 -29.48432 -63.31197 40908 ft 499 kts 156°
2026-05-04 17:09 -29.51360 -63.29119 40906 ft 491 kts 157°
2026-05-04 17:10 -29.66208 -63.18550 40903 ft 521 kts 150°
2026-05-04 17:11 -29.72455 -63.14092 40919 ft 532 kts 155°
2026-05-04 17:11 -29.78641 -63.09694 40907 ft 506 kts 156°
2026-05-04 17:12 -29.81595 -63.07596 40892 ft 492 kts 151°
2026-05-04 17:12 -29.87465 -63.03406 41174 ft 490 kts 147°
2026-05-04 17:13 -29.95789 -62.97449 40985 ft 471 kts 139°